Regional Weather Roundup
Issued by NWS Portland, ME

Current Version | Previous Version | Text Only | Print | Product List | Glossary Off
Versions: 1 2 3 4 5 6 7 8 9 10 11 12 13 14 15 16 17 18 19 20 21 22 23 24 25 26 27 28 29 30 31 32 33 34 35 36 37 38 39 40 41 42 43 44 45 46 47 48 49 50
000 ASUS41 KGYX 170805 RWRGYX WEATHER ROUNDUP FOR MAINE AND NEW HAMPSHIRE NATIONAL WEATHER SERVICE GRAY ME 300 AM EST FRI NOV 17 2017 MEZ002-005-006-010-012-015-018-020-021-024-026-027-029-170900- MAINE CITY SKY/WX TMP DP RH WIND PRES REMARKS PORTLAND MOCLDY 35 34 96 W7 29.64R SANFORD CLOUDY 37 35 92 W12G20 29.65R BAR HARBOR MIX PCPN 37 36 96 W8 29.53F WISCASSET CLOUDY 38 37 97 VRB5 29.63R ROCKLAND CLOUDY 36 36 100 W12 29.59R FRYEBURG CLEAR 37 32 82 NW12G21 29.64R LEWISTONAUBURN PTCLDY 35 34 96 W5 29.62R AUGUSTA PTCLDY 36 34 92 W7 29.59S WATERVILLE PTCLDY 34 33 96 SW6 29.55R BANGOR CLOUDY 37 35 92 W8 29.54S GREENVILLE NOT AVBL MILLINOCKET LGT RAIN 35 35 100 NW3 29.52F HOULTON LGT RAIN 37 37 100 N12 29.43F FOG PRESQUE ISLE FLURRIES 34 33 96 N12 29.50F FRENCHVILLE LGT SNOW 32 30 92 N12 29.51F FOG CARIBOU FLURRIES 34 32 92 N8 29.49F $$ NHZ002-005-008-009-011-012-014-170900- NEW HAMPSHIRE CITY SKY/WX TMP DP RH WIND PRES REMARKS PORTSMOUTH PTCLDY 39 33 78 W15 29.66R ROCHESTER CLOUDY 38 33 82 W10G20 29.66R NASHUA CLEAR 39 31 72 W10 29.73R MANCHESTER PTCLDY 39 31 72 W12G21 29.70R CONCORD PTCLDY 38 31 76 NW9G18 29.71R LACONIA PTCLDY 36 30 79 W9G23 29.69 PLYMOUTH MOCLDY 36 29 76 W15G25 29.72R BERLIN CLOUDY 35 29 78 W12G25 29.65R WHITEFIELD CLOUDY 34 29 82 W12 29.72R JAFFREY MOCLDY 37 29 72 W9G17 29.74R KEENE CLOUDY 38 28 67 NW15G24 29.78R LEBANON CLOUDY 38 28 67 VRB3G18 29.77R MT WASHINGTON SNOWSHWR 14 14 100 W47G59 N/A VSB 0 WCI -11 $$ VTZ005-007-008-170900- VERMONT CITY SKY/WX TMP DP RH WIND PRES REMARKS MONTPELIER FLURRIES 30 26 85 NW14G26 29.82R WCI 19 BURLINGTON CLOUDY 34 23 64 W13G29 29.87R $$ MAZ007-012-024-CTZ003-RIZ002-NYZ038-NYZ072-170900- SOUTHERN NEW ENGLAND AND NY CITY SKY/WX TMP DP RH WIND PRES REMARKS BOSTON PTCLDY 41 33 73 W12 29.72R WORCESTER MOCLDY 36 28 73 W16G23 29.72R NANTUCKET CLEAR 43 35 73 W15 29.73S PROVIDENCE PTCLDY 41 32 70 W9G23 29.77R HARTFORD MOCLDY 40 29 64 NW14G26 29.83R ALBANY CLOUDY 37 25 61 NW21G37 29.92R NEW YORK CITY PTCLDY 44 30 57 NW17G24 29.94R $$ ANZ081-ANZ082-ANZ150-NHZ014-MEZ023>029-170900- COASTAL MARINE OBSERVATIONS STATION/POSITION TIME TEMP WIND PRES WAVE AIR SEA DIR/SP/G HT/PER (UTC) (F) (DEG/KT/KT) (MB) (FT/S) MOUNT DESERT ROC 0800 43 280/ 24/ 27 1000.1R MATINICUS ROCK 0700 42 300/ 24/ 26 1000.7R ISLE OF SHOALS 0700 42 290/ 25/ 28 1003.3R JEFFREYS LEDGE 0736 51 N/A 6/ 5 GEORGES BANK BUO 0650 53 54 1002.7 9/ 6 $$ .............KEY.............. WCI - WIND CHILL TC - TEMPERATURE IN CELSIUS VSB - VISIBILITY IN MILES HX - HEAT INDEX FAIR- INDICATES FEW OR NO CLOUDS BELOW 12,000 FT, WITH NO SIGNIFICANT WEATHER AND/OR OBSTRUCTIONS TO VISIBILITY.

USA.gov is the U.S. government's official web portal to all federal, state and local government web resources and services.